User: anonymous   Login
Location: Lac de la Montange Noire
(46.1952°N, 74.2701°W)
Time: 18:40:52
(UTC-04:00)
Language:

Iridium 42 - Orbit

View from above orbital plane
View from above orbital plane
View from above satellite
View from above satellite

Ground track
Ground track

The orbit data is extracted from the following two-line orbital elements,

1 25077U 97077A   16146.63494941  .00000145  00000-0  51635-4 0  9993
2 25077  86.3979 183.9468 0002854  87.3658 272.8348 14.34480097966993
Epoch (UTC): 25 May 2016 15:14:19
Eccentricity: 0.0002854
inclination: 86.3979°
perigee height: 775 km
apogee height: 779 km
right ascension of ascending node: 183.9468°
argument of perigee: 87.3658°
revolutions per day: 14.34480097
mean anomaly at epoch: 272.8348°
orbit number at epoch: 96699

The dashed part of the orbit path shows where the satellite is in the earth's shadow,  

DLR